| time (UTC) | temp C | wind direction | speed KPH | gust KPH | rain 1hr cm | rain 24hr cm | rain mn cm | humidity % | barometer mb |
| 20260510045249 | 11 | 251 | 1.6 | 3.2 | 0.00 | 0.00 | 0.00 | 80 | 1015.5 |
| 20260510044747 | 11 | 269 | 1.6 | 4.8 | 0.00 | 0.00 | 0.00 | 79 | 1015.3 |
| 20260510044239 | 11 | 267 | 3.2 | 4.8 | 0.00 | 0.00 | 0.00 | 79 | 1015.5 |
| 20260510043734 | 11 | 258 | 4.8 | 6.4 | 0.00 | 0.00 | 0.00 | 81 | 1015.4 |
| 20260510043231 | 10 | 265 | 1.6 | 3.2 | 0.00 | 0.00 | 0.00 | 82 | 1015.4 |
| 20260510042729 | 10 | 251 | 3.2 | 3.2 | 0.00 | 0.00 | 0.00 | 81 | 1015.4 |
| 20260510042224 | 10 | 245 | 1.6 | 3.2 | 0.00 | 0.00 | 0.00 | 81 | 1015.4 |
| 20260510041721 | 9 | 250 | 4.8 | 4.8 | 0.00 | 0.00 | 0.00 | 84 | 1015.5 |
| 20260510041219 | 9 | 257 | 0.0 | 0.0 | 0.00 | 0.00 | 0.00 | 84 | 1015.4 |
| 20260510040715 | 8 | 257 | 0.0 | 0.0 | 0.00 | 0.00 | 0.00 | 84 | 1015.3 |
| 20260510040212 | 8 | 256 | 0.0 | 0.0 | 0.00 | 0.00 | 0.00 | 85 | 1015.4 |
| 20260510035707 | 8 | 258 | 0.0 | 0.0 | 0.00 | 0.00 | 0.00 | 86 | 1015.4 |
| 20260510035204 | 8 | 258 | 0.0 | 0.0 | 0.00 | 0.00 | 0.00 | 86 | 1015.5 |
| 20260510034700 | 8 | 258 | 0.0 | 0.0 | 0.00 | 0.00 | 0.00 | 86 | 1015.3 |
| 20260510034157 | 8 | 254 | 0.0 | 0.0 | 0.00 | 0.00 | 0.00 | 86 | 1015.4 |
| 20260510033653 | 8 | 254 | 0.0 | 0.0 | 0.00 | 0.00 | 0.00 | 85 | 1015.4 |
| 20260510033151 | 8 | 254 | 0.0 | 0.0 | 0.00 | 0.00 | 0.00 | 86 | 1015.3 |
| 20260510032647 | 8 | 254 | 0.0 | 0.0 | 0.00 | 0.00 | 0.00 | 85 | 1015.2 |
| 20260510032143 | 8 | 254 | 0.0 | 0.0 | 0.00 | 0.00 | 0.00 | 85 | 1015.2 |
| 20260510031637 | 8 | 254 | 0.0 | 0.0 | 0.00 | 0.00 | 0.00 | 85 | 1015.1 |
| 20260510031135 | 8 | 254 | 1.6 | 3.2 | 0.00 | 0.00 | 0.00 | 83 | 1015.3 |
| 20260510030629 | 8 | 254 | 1.6 | 3.2 | 0.00 | 0.00 | 0.00 | 85 | 1015.3 |
| 20260510030127 | 8 | 266 | 1.6 | 4.8 | 0.00 | 0.00 | 0.00 | 83 | 1015.2 |
| 20260510025624 | 8 | 263 | 1.6 | 3.2 | 0.00 | 0.00 | 0.00 | 83 | 1015.1 |
| 20260510025121 | 8 | 263 | 1.6 | 3.2 | 0.00 | 0.00 | 0.00 | 84 | 1015.3 |
| 20260510024618 | 8 | 263 | 0.0 | 0.0 | 0.00 | 0.00 | 0.00 | 83 | 1015.2 |
| 20260510024114 | 9 | 263 | 0.0 | 0.0 | 0.00 | 0.00 | 0.00 | 82 | 1015.2 |
| 20260510023610 | 9 | 263 | 0.0 | 0.0 | 0.00 | 0.00 | 0.00 | 82 | 1015.3 |
| 20260510023108 | 9 | 263 | 0.0 | 0.0 | 0.00 | 0.00 | 0.00 | 82 | 1015.2 |
| 20260510022608 | 8 | 263 | 0.0 | 0.0 | 0.00 | 0.00 | 0.00 | 83 | 1014.9 |
| 20260510022102 | 8 | 263 | 0.0 | 0.0 | 0.00 | 0.00 | 0.00 | 84 | 1015.1 |
| 20260510021558 | 8 | 263 | 0.0 | 0.0 | 0.00 | 0.00 | 0.00 | 84 | 1014.8 |
| 20260510021056 | 8 | 263 | 0.0 | 0.0 | 0.00 | 0.00 | 0.00 | 84 | 1015.1 |
| 20260510020549 | 9 | 263 | 0.0 | 0.0 | 0.00 | 0.00 | 0.00 | 81 | 1014.9 |
| 20260510020045 | 10 | 263 | 0.0 | 0.0 | 0.00 | 0.00 | 0.00 | 80 | 1015.1 |
| 20260510015541 | 10 | 263 | 0.0 | 0.0 | 0.00 | 0.00 | 0.00 | 79 | 1014.8 |
| 20260510015038 | 10 | 263 | 0.0 | 0.0 | 0.00 | 0.00 | 0.00 | 79 | 1014.8 |
| 20260510014534 | 10 | 262 | 0.0 | 0.0 | 0.00 | 0.00 | 0.00 | 78 | 1014.5 |
| 20260510014031 | 10 | 262 | 0.0 | 0.0 | 0.00 | 0.00 | 0.00 | 76 | 1014.3 |
| 20260510013526 | 11 | 262 | 0.0 | 0.0 | 0.00 | 0.00 | 0.00 | 75 | 1014.4 |
| 20260510013022 | 11 | 262 | 0.0 | 1.6 | 0.00 | 0.00 | 0.00 | 73 | 1014.5 |
| 20260510012517 | 11 | 262 | 1.6 | 1.6 | 0.00 | 0.00 | 0.00 | 72 | 1014.4 |
| 20260510012013 | 12 | 263 | 3.2 | 3.2 | 0.00 | 0.00 | 0.00 | 71 | 1014.4 |
| 20260510011508 | 12 | 263 | 3.2 | 4.8 | 0.00 | 0.00 | 0.00 | 71 | 1014.2 |
| 20260510011003 | 12 | 270 | 4.8 | 4.8 | 0.00 | 0.00 | 0.00 | 70 | 1014.3 |
| 20260510010501 | 12 | 251 | 3.2 | 4.8 | 0.00 | 0.00 | 0.00 | 70 | 1014.1 |
| 20260510005957 | 12 | 249 | 3.2 | 4.8 | 0.00 | 0.00 | 0.00 | 70 | 1014.0 |
| 20260510005453 | 12 | 249 | 3.2 | 3.2 | 0.00 | 0.00 | 0.00 | 69 | 1014.0 |
| 20260510004951 | 12 | 250 | 3.2 | 4.8 | 0.00 | 0.00 | 0.00 | 69 | 1014.0 |
| 20260510004448 | 12 | 261 | 4.8 | 4.8 | 0.00 | 0.00 | 0.00 | 68 | 1013.6 |
| 20260510003946 | 13 | 284 | 8.0 | 9.7 | 0.00 | 0.00 | 0.00 | 67 | 1013.5 |
| 20260510003443 | 13 | 265 | 6.4 | 6.4 | 0.00 | 0.00 | 0.00 | 66 | 1013.5 |
| 20260510002942 | 13 | 257 | 6.4 | 6.4 | 0.00 | 0.00 | 0.00 | 66 | 1013.5 |
| 20260510002433 | 13 | 236 | 6.4 | 6.4 | 0.00 | 0.00 | 0.00 | 65 | 1013.4 |
| 20260510001930 | 13 | 278 | 8.0 | 9.7 | 0.00 | 0.00 | 0.00 | 65 | 1013.6 |
| 20260510001427 | 13 | 267 | 6.4 | 9.7 | 0.00 | 0.00 | 0.00 | 66 | 1013.4 |
| 20260510000925 | 13 | 249 | 3.2 | 4.8 | 0.00 | 0.00 | 0.00 | 65 | 1013.4 |
| 20260510000421 | 13 | 254 | 3.2 | 4.8 | 0.00 | 0.00 | 0.00 | 64 | 1013.3 |
| 20260509235917 | 14 | 265 | 4.8 | 4.8 | 0.00 | 0.00 | 0.00 | 64 | 1013.2 |
| 20260509235414 | 14 | 270 | 4.8 | 6.4 | 0.00 | 0.00 | 0.00 | 63 | 1013.2 |
| 20260509234910 | 14 | 274 | 8.0 | 11.3 | 0.00 | 0.00 | 0.00 | 62 | 1013.1 |
| 20260509234407 | 14 | 260 | 9.7 | 11.3 | 0.00 | 0.00 | 0.00 | 62 | 1013.2 |
| 20260509233906 | 15 | 254 | 3.2 | 4.8 | 0.00 | 0.00 | 0.00 | 61 | 1013.2 |
| 20260509233403 | 15 | 252 | 4.8 | 4.8 | 0.00 | 0.00 | 0.00 | 60 | 1013.3 |
| 20260509232858 | 15 | 272 | 8.0 | 9.7 | 0.00 | 0.00 | 0.00 | 61 | 1013.4 |
| 20260509232356 | 15 | 283 | 11.3 | 12.9 | 0.00 | 0.00 | 0.00 | 60 | 1013.2 |
| 20260509231852 | 15 | 304 | 8.0 | 11.3 | 0.00 | 0.00 | 0.00 | 60 | 1013.4 |
| 20260509231349 | 15 | 251 | 11.3 | 14.5 | 0.00 | 0.00 | 0.00 | 58 | 1013.0 |
| 20260509230847 | 15 | 318 | 9.7 | 14.5 | 0.00 | 0.00 | 0.00 | 58 | 1013.3 |
| 20260509230344 | 15 | 272 | 12.9 | 22.5 | 0.00 | 0.00 | 0.00 | 58 | 1013.3 |
| 20260509225839 | 15 | 283 | 8.0 | 16.1 | 0.00 | 0.00 | 0.00 | 58 | 1013.3 |
| 20260509225336 | 15 | 248 | 9.7 | 17.7 | 0.00 | 0.00 | 0.00 | 57 | 1013.3 |
| 20260509224832 | 16 | 261 | 12.9 | 14.5 | 0.00 | 0.00 | 0.00 | 57 | 1013.4 |
| 20260509224328 | 16 | 274 | 9.7 | 16.1 | 0.00 | 0.00 | 0.00 | 57 | 1013.6 |
| 20260509223825 | 16 | 243 | 8.0 | 11.3 | 0.00 | 0.00 | 0.00 | 57 | 1013.4 |
| 20260509223322 | 16 | 275 | 11.3 | 12.9 | 0.00 | 0.00 | 0.00 | 56 | 1013.5 |
| 20260509222819 | 16 | 255 | 12.9 | 14.5 | 0.00 | 0.00 | 0.00 | 56 | 1013.5 |
| 20260509222314 | 16 | 296 | 8.0 | 14.5 | 0.00 | 0.00 | 0.00 | 56 | 1013.5 |
| 20260509221810 | 16 | 252 | 4.8 | 11.3 | 0.00 | 0.00 | 0.00 | 56 | 1013.6 |
| 20260509221308 | 16 | 267 | 9.7 | 12.9 | 0.00 | 0.00 | 0.00 | 56 | 1013.6 |
| 20260509220808 | 16 | 270 | 8.0 | 11.3 | 0.00 | 0.00 | 0.00 | 55 | 1013.8 |
| 20260509220304 | 16 | 313 | 8.0 | 14.5 | 0.00 | 0.00 | 0.00 | 55 | 1013.5 |
| 20260509215759 | 16 | 281 | 9.7 | 11.3 | 0.00 | 0.00 | 0.00 | 54 | 1013.6 |
| 20260509215256 | 16 | 217 | 12.9 | 14.5 | 0.00 | 0.00 | 0.00 | 55 | 1013.8 |
| 20260509214753 | 17 | 293 | 6.4 | 11.3 | 0.00 | 0.00 | 0.00 | 53 | 1013.6 |
| 20260509214250 | 16 | 315 | 6.4 | 11.3 | 0.00 | 0.00 | 0.00 | 53 | 1013.6 |
| 20260509213747 | 16 | 276 | 8.0 | 12.9 | 0.00 | 0.00 | 0.00 | 54 | 1013.4 |
| 20260509213243 | 16 | 292 | 4.8 | 9.7 | 0.00 | 0.00 | 0.00 | 55 | 1013.4 |
| 20260509212741 | 16 | 254 | 6.4 | 9.7 | 0.00 | 0.00 | 0.00 | 57 | 1013.1 |
| 20260509212238 | 16 | 255 | 9.7 | 11.3 | 0.00 | 0.00 | 0.00 | 56 | 1013.4 |
| 20260509211733 | 17 | 273 | 9.7 | 17.7 | 0.00 | 0.00 | 0.00 | 54 | 1013.4 |
| 20260509211230 | 17 | 260 | 9.7 | 12.9 | 0.00 | 0.00 | 0.00 | 54 | 1013.3 |
| 20260509210727 | 16 | 253 | 17.7 | 24.1 | 0.00 | 0.00 | 0.00 | 54 | 1013.2 |
| 20260509210225 | 16 | 245 | 4.8 | 6.4 | 0.00 | 0.00 | 0.00 | 55 | 1013.3 |
| 20260509205724 | 16 | 274 | 9.7 | 12.9 | 0.00 | 0.00 | 0.00 | 55 | 1013.2 |
| 20260509205224 | 16 | 243 | 8.0 | 11.3 | 0.00 | 0.00 | 0.00 | 57 | 1013.3 |
| 20260509204720 | 16 | 262 | 11.3 | 12.9 | 0.00 | 0.00 | 0.00 | 57 | 1013.3 |
| 20260509204216 | 16 | 289 | 6.4 | 9.7 | 0.00 | 0.00 | 0.00 | 58 | 1013.2 |
| 20260509203712 | 16 | 247 | 3.2 | 3.2 | 0.00 | 0.00 | 0.00 | 59 | 1013.2 |
| 20260509203211 | 16 | 257 | 3.2 | 4.8 | 0.00 | 0.00 | 0.00 | 60 | 1013.4 |
| 20260509202706 | 16 | 281 | 6.4 | 6.4 | 0.00 | 0.00 | 0.00 | 58 | 1013.3 |
| 20260509202201 | 16 | 244 | 3.2 | 6.4 | 0.00 | 0.00 | 0.00 | 58 | 1013.1 |
| 20260509201657 | 16 | 248 | 3.2 | 4.8 | 0.00 | 0.00 | 0.00 | 59 | 1013.4 |
| 20260509201154 | 15 | 260 | 3.2 | 6.4 | 0.00 | 0.00 | 0.00 | 59 | 1013.5 |
| 20260509200650 | 15 | 292 | 3.2 | 4.8 | 0.00 | 0.00 | 0.00 | 58 | 1013.5 |
| 20260509200145 | 15 | 299 | 0.0 | 3.2 | 0.00 | 0.00 | 0.00 | 59 | 1013.2 |
| 20260509195642 | 15 | 258 | 4.8 | 6.4 | 0.00 | 0.00 | 0.00 | 57 | 1013.3 |
| 20260509195137 | 15 | 251 | 3.2 | 6.4 | 0.00 | 0.00 | 0.00 | 58 | 1013.2 |
| 20260509194636 | 15 | 265 | 0.0 | 3.2 | 0.00 | 0.00 | 0.00 | 58 | 1013.3 |
| 20260509194134 | 15 | 282 | 3.2 | 4.8 | 0.00 | 0.00 | 0.00 | 57 | 1013.4 |
| 20260509193629 | 15 | 265 | 6.4 | 9.7 | 0.00 | 0.00 | 0.00 | 56 | 1013.4 |
| 20260509193125 | 15 | 234 | 4.8 | 9.7 | 0.00 | 0.00 | 0.00 | 56 | 1013.1 |
| 20260509192622 | 15 | 274 | 4.8 | 4.8 | 0.00 | 0.00 | 0.00 | 58 | 1013.2 |
| 20260509192117 | 15 | 259 | 4.8 | 6.4 | 0.00 | 0.00 | 0.00 | 56 | 1013.3 |
| 20260509191612 | 15 | 270 | 4.8 | 6.4 | 0.00 | 0.00 | 0.00 | 56 | 1013.1 |
| 20260509191109 | 15 | 258 | 6.4 | 9.7 | 0.00 | 0.00 | 0.00 | 54 | 1013.3 |
| 20260509190605 | 15 | 277 | 6.4 | 14.5 | 0.00 | 0.00 | 0.00 | 54 | 1013.2 |
| 20260509185600 | 15 | 266 | 6.4 | 9.7 | 0.00 | 0.00 | 0.00 | 54 | 1013.1 |
| 20260509185056 | 15 | 255 | 4.8 | 9.7 | 0.00 | 0.00 | 0.00 | 53 | 1013.1 |
| 20260509184555 | 15 | 273 | 4.8 | 11.3 | 0.00 | 0.00 | 0.00 | 54 | 1013.3 |
| 20260509184051 | 15 | 271 | 6.4 | 9.7 | 0.00 | 0.00 | 0.00 | 53 | 1013.1 |
| 20260509183546 | 16 | 246 | 6.4 | 9.7 | 0.00 | 0.00 | 0.00 | 53 | 1013.1 |
| 20260509183042 | 15 | 228 | 4.8 | 11.3 | 0.00 | 0.00 | 0.00 | 51 | 1013.1 |
| 20260509182539 | 15 | 247 | 1.6 | 9.7 | 0.00 | 0.00 | 0.00 | 54 | 1013.0 |
| 20260509182036 | 15 | 233 | 3.2 | 3.2 | 0.00 | 0.00 | 0.00 | 54 | 1013.1 |
| 20260509181534 | 15 | 242 | 4.8 | 6.4 | 0.00 | 0.00 | 0.00 | 54 | 1013.1 |
| 20260509181031 | 15 | 244 | 8.0 | 12.9 | 0.00 | 0.00 | 0.00 | 53 | 1013.3 |
| 20260509180527 | 15 | 194 | 6.4 | 9.7 | 0.00 | 0.00 | 0.00 | 53 | 1013.3 |
| 20260509180025 | 16 | 251 | 6.4 | 12.9 | 0.00 | 0.00 | 0.00 | 52 | 1013.3 |
| 20260509175519 | 15 | 256 | 12.9 | 16.1 | 0.00 | 0.00 | 0.00 | 51 | 1013.2 |
| 20260509175016 | 15 | 258 | 8.0 | 11.3 | 0.00 | 0.00 | 0.00 | 53 | 1013.3 |
| 20260509174513 | 15 | 240 | 6.4 | 9.7 | 0.00 | 0.00 | 0.00 | 53 | 1013.3 |
| 20260509174008 | 15 | 231 | 4.8 | 6.4 | 0.00 | 0.00 | 0.00 | 52 | 1013.5 |
| 20260509173503 | 15 | 285 | 9.7 | 12.9 | 0.00 | 0.00 | 0.00 | 51 | 1013.4 |
| 20260509172959 | 16 | 229 | 8.0 | 9.7 | 0.00 | 0.00 | 0.00 | 52 | 1013.4 |
| 20260509172456 | 16 | 281 | 8.0 | 11.3 | 0.00 | 0.00 | 0.00 | 51 | 1013.5 |
| 20260509171952 | 15 | 243 | 6.4 | 14.5 | 0.00 | 0.00 | 0.00 | 51 | 1013.5 |
| 20260509171448 | 15 | 245 | 6.4 | 6.4 | 0.00 | 0.00 | 0.00 | 53 | 1013.5 |
| 20260509170945 | 15 | 250 | 8.0 | 9.7 | 0.00 | 0.00 | 0.00 | 53 | 1013.8 |
| 20260509170440 | 14 | 246 | 6.4 | 9.7 | 0.00 | 0.00 | 0.00 | 54 | 1013.9 |
| 20260509165936 | 14 | 248 | 9.7 | 12.9 | 0.00 | 0.00 | 0.00 | 52 | 1013.8 |
| 20260509165430 | 14 | 234 | 3.2 | 9.7 | 0.00 | 0.00 | 0.00 | 54 | 1013.9 |
| 20260509164926 | 14 | 240 | 8.0 | 11.3 | 0.00 | 0.00 | 0.00 | 52 | 1014.0 |
| 20260509164422 | 14 | 270 | 9.7 | 11.3 | 0.00 | 0.00 | 0.00 | 53 | 1013.8 |
| 20260509163918 | 14 | 234 | 0.0 | 4.8 | 0.00 | 0.00 | 0.00 | 55 | 1013.8 |
| 20260509163416 | 13 | 243 | 1.6 | 9.7 | 0.00 | 0.00 | 0.00 | 55 | 1013.6 |
| 20260509162915 | 13 | 236 | 4.8 | 6.4 | 0.00 | 0.00 | 0.00 | 56 | 1014.1 |
| 20260509162414 | 14 | 234 | 8.0 | 11.3 | 0.00 | 0.00 | 0.00 | 55 | 1014.2 |
| 20260509161909 | 13 | 238 | 3.2 | 9.7 | 0.00 | 0.00 | 0.00 | 56 | 1014.2 |
| 20260509161406 | 13 | 235 | 4.8 | 6.4 | 0.00 | 0.00 | 0.00 | 56 | 1014.0 |
| 20260509160901 | 13 | 267 | 6.4 | 6.4 | 0.00 | 0.00 | 0.00 | 57 | 1014.3 |
| 20260509160357 | 13 | 278 | 6.4 | 11.3 | 0.00 | 0.00 | 0.00 | 57 | 1014.3 |
| 20260509155853 | 13 | 271 | 4.8 | 6.4 | 0.00 | 0.00 | 0.00 | 61 | 1014.4 |
| 20260509155349 | 13 | 254 | 4.8 | 9.7 | 0.00 | 0.00 | 0.00 | 62 | 1014.3 |
| 20260509154845 | 13 | 246 | 4.8 | 4.8 | 0.00 | 0.00 | 0.00 | 64 | 1014.4 |
| 20260509154342 | 13 | 235 | 0.0 | 4.8 | 0.00 | 0.00 | 0.00 | 64 | 1014.5 |
| 20260509153839 | 12 | 240 | 3.2 | 4.8 | 0.00 | 0.00 | 0.00 | 63 | 1014.6 |
| 20260509153336 | 12 | 258 | 1.6 | 3.2 | 0.00 | 0.00 | 0.00 | 64 | 1014.6 |
| 20260509152833 | 12 | 249 | 0.0 | 0.0 | 0.00 | 0.00 | 0.00 | 69 | 1014.4 |
| 20260509152329 | 12 | 261 | 1.6 | 3.2 | 0.00 | 0.00 | 0.00 | 67 | 1014.4 |
| 20260509151826 | 12 | 264 | 1.6 | 3.2 | 0.00 | 0.00 | 0.00 | 68 | 1014.4 |
| 20260509151322 | 12 | 76 | 0.0 | 3.2 | 0.00 | 0.00 | 0.00 | 68 | 1014.5 |
| 20260509150821 | 12 | 200 | 0.0 | 0.0 | 0.00 | 0.00 | 0.00 | 70 | 1014.3 |
| 20260509150318 | 12 | 220 | 0.0 | 0.0 | 0.00 | 0.00 | 0.00 | 71 | 1014.4 |
| 20260509145815 | 11 | 188 | 0.0 | 0.0 | 0.00 | 0.00 | 0.00 | 72 | 1014.4 |
| 20260509145315 | 11 | 243 | 0.0 | 1.6 | 0.00 | 0.00 | 0.00 | 72 | 1014.5 |
| 20260509144812 | 11 | 256 | 1.6 | 3.2 | 0.00 | 0.00 | 0.00 | 71 | 1014.5 |
| 20260509144308 | 11 | 265 | 0.0 | 0.0 | 0.00 | 0.00 | 0.00 | 72 | 1014.5 |
| 20260509143806 | 11 | 265 | 0.0 | 0.0 | 0.00 | 0.00 | 0.00 | 74 | 1014.5 |
| 20260509143303 | 11 | 263 | 0.0 | 1.6 | 0.00 | 0.00 | 0.00 | 72 | 1014.5 |
| 20260509142759 | 11 | 263 | 3.2 | 3.2 | 0.00 | 0.00 | 0.00 | 72 | 1014.7 |
| 20260509142255 | 11 | 254 | 1.6 | 3.2 | 0.00 | 0.00 | 0.00 | 74 | 1014.6 |
| 20260509141751 | 11 | 299 | 1.6 | 3.2 | 0.00 | 0.00 | 0.00 | 73 | 1014.5 |
| 20260509141248 | 11 | 271 | 4.8 | 4.8 | 0.00 | 0.00 | 0.00 | 75 | 1014.4 |
| 20260509140745 | 11 | 245 | 0.0 | 3.2 | 0.00 | 0.00 | 0.00 | 74 | 1014.6 |
| 20260509140242 | 10 | 236 | 0.0 | 3.2 | 0.00 | 0.00 | 0.00 | 75 | 1014.7 |
| 20260509135739 | 10 | 253 | 3.2 | 3.2 | 0.00 | 0.00 | 0.00 | 76 | 1014.6 |
| 20260509135237 | 10 | 249 | 0.0 | 0.0 | 0.00 | 0.00 | 0.00 | 75 | 1014.7 |
| 20260509134734 | 10 | 250 | 0.0 | 0.0 | 0.00 | 0.00 | 0.00 | 76 | 1014.5 |
| 20260509134231 | 10 | 250 | 0.0 | 0.0 | 0.00 | 0.00 | 0.00 | 76 | 1014.6 |
| 20260509133728 | 10 | 250 | 0.0 | 0.0 | 0.00 | 0.00 | 0.00 | 78 | 1014.4 |
| 20260509133225 | 10 | 268 | 0.0 | 0.0 | 0.00 | 0.00 | 0.00 | 77 | 1014.6 |
| 20260509132724 | 10 | 268 | 0.0 | 0.0 | 0.00 | 0.00 | 0.00 | 77 | 1014.4 |
| 20260509132222 | 10 | 268 | 0.0 | 0.0 | 0.00 | 0.00 | 0.00 | 77 | 1014.5 |
| 20260509131718 | 10 | 268 | 0.0 | 0.0 | 0.00 | 0.00 | 0.00 | 79 | 1014.5 |
| 20260509131215 | 10 | 268 | 0.0 | 0.0 | 0.00 | 0.00 | 0.00 | 78 | 1014.3 |
| 20260509130711 | 10 | 268 | 0.0 | 1.6 | 0.00 | 0.00 | 0.00 | 78 | 1014.2 |
| 20260509130207 | 10 | 268 | 1.6 | 3.2 | 0.00 | 0.00 | 0.00 | 78 | 1014.4 |
| 20260509125703 | 10 | 269 | 0.0 | 1.6 | 0.00 | 0.00 | 0.00 | 79 | 1014.3 |
| 20260509125200 | 9 | 265 | 3.2 | 3.2 | 0.00 | 0.00 | 0.00 | 80 | 1014.4 |
| 20260509124657 | 9 | 262 | 1.6 | 1.6 | 0.00 | 0.00 | 0.00 | 79 | 1014.4 |
| 20260509124154 | 9 | 275 | 0.0 | 0.0 | 0.00 | 0.00 | 0.00 | 79 | 1014.3 |
| 20260509123653 | 9 | 275 | 0.0 | 0.0 | 0.00 | 0.00 | 0.00 | 78 | 1014.2 |
| 20260509123149 | 9 | 262 | 1.6 | 3.2 | 0.00 | 0.00 | 0.00 | 78 | 1014.3 |
| 20260509122644 | 9 | 269 | 1.6 | 3.2 | 0.00 | 0.00 | 0.00 | 78 | 1014.5 |
| 20260509122141 | 9 | 267 | 1.6 | 3.2 | 0.00 | 0.00 | 0.00 | 78 | 1014.3 |
| 20260509121637 | 9 | 269 | 3.2 | 4.8 | 0.00 | 0.00 | 0.00 | 78 | 1014.4 |
| 20260509121136 | 9 | 272 | 1.6 | 3.2 | 0.00 | 0.00 | 0.00 | 77 | 1014.6 |
| 20260509120633 | 9 | 272 | 0.0 | 0.0 | 0.00 | 0.00 | 0.00 | 77 | 1014.4 |
| 20260509120132 | 9 | 272 | 0.0 | 0.0 | 0.00 | 0.00 | 0.00 | 78 | 1014.6 |
| 20260509115628 | 9 | 272 | 0.0 | 0.0 | 0.00 | 0.00 | 0.00 | 77 | 1014.4 |
| 20260509115126 | 9 | 272 | 0.0 | 0.0 | 0.00 | 0.00 | 0.00 | 76 | 1014.5 |
| 20260509114624 | 9 | 272 | 0.0 | 0.0 | 0.00 | 0.00 | 0.00 | 77 | 1014.4 |
| 20260509114123 | 9 | 272 | 0.0 | 0.0 | 0.00 | 0.00 | 0.00 | 76 | 1014.7 |
| 20260509113621 | 9 | 272 | 0.0 | 1.6 | 0.00 | 0.00 | 0.00 | 77 | 1014.6 |
| 20260509113118 | 9 | 272 | 0.0 | 0.0 | 0.00 | 0.00 | 0.00 | 76 | 1014.7 |
| 20260509112614 | 9 | 272 | 1.6 | 3.2 | 0.00 | 0.00 | 0.00 | 75 | 1014.6 |
| 20260509112112 | 9 | 273 | 0.0 | 0.0 | 0.00 | 0.00 | 0.00 | 77 | 1014.4 |
| 20260509111608 | 8 | 273 | 0.0 | 0.0 | 0.00 | 0.00 | 0.00 | 77 | 1014.3 |
| 20260509111105 | 8 | 272 | 0.0 | 0.0 | 0.00 | 0.00 | 0.00 | 77 | 1014.3 |
| 20260509110602 | 8 | 272 | 0.0 | 0.0 | 0.00 | 0.00 | 0.00 | 76 | 1014.2 |
| 20260509110059 | 8 | 272 | 0.0 | 0.0 | 0.00 | 0.00 | 0.00 | 76 | 1014.3 |
| 20260509105558 | 8 | 272 | 1.6 | 1.6 | 0.00 | 0.00 | 0.00 | 74 | 1014.5 |
| 20260509105056 | 8 | 272 | 0.0 | 0.0 | 0.00 | 0.00 | 0.00 | 75 | 1014.3 |
| 20260509104552 | 8 | 272 | 0.0 | 1.6 | 0.00 | 0.00 | 0.00 | 74 | 1014.3 |
| 20260509104049 | 8 | 272 | 1.6 | 1.6 | 0.00 | 0.00 | 0.00 | 73 | 1014.6 |
| 20260509103546 | 8 | 272 | 0.0 | 0.0 | 0.00 | 0.00 | 0.00 | 72 | 1014.4 |
| 20260509103044 | 8 | 272 | 0.0 | 0.0 | 0.00 | 0.00 | 0.00 | 73 | 1014.4 |
| 20260509102541 | 8 | 272 | 0.0 | 0.0 | 0.00 | 0.00 | 0.00 | 73 | 1014.5 |
| 20260509102038 | 8 | 272 | 0.0 | 0.0 | 0.00 | 0.00 | 0.00 | 71 | 1014.6 |
| 20260509101534 | 8 | 272 | 0.0 | 0.0 | 0.00 | 0.00 | 0.00 | 71 | 1014.5 |
| 20260509101031 | 8 | 272 | 0.0 | 0.0 | 0.00 | 0.00 | 0.00 | 73 | 1014.3 |
| 20260509100528 | 8 | 272 | 0.0 | 0.0 | 0.00 | 0.00 | 0.00 | 69 | 1014.2 |
| 20260509100026 | 8 | 272 | 0.0 | 0.0 | 0.00 | 0.00 | 0.00 | 68 | 1014.1 |
| 20260509095522 | 8 | 272 | 0.0 | 0.0 | 0.00 | 0.00 | 0.00 | 68 | 1013.9 |
| 20260509095020 | 8 | 272 | 0.0 | 0.0 | 0.00 | 0.00 | 0.00 | 70 | 1014.3 |
| 20260509094516 | 8 | 272 | 0.0 | 0.0 | 0.00 | 0.00 | 0.00 | 72 | 1014.1 |
| 20260509094013 | 8 | 272 | 0.0 | 0.0 | 0.00 | 0.00 | 0.00 | 72 | 1014.3 |
| 20260509093511 | 8 | 272 | 0.0 | 0.0 | 0.00 | 0.00 | 0.00 | 73 | 1014.5 |
| 20260509093009 | 8 | 272 | 0.0 | 0.0 | 0.00 | 0.00 | 0.00 | 71 | 1014.3 |
| 20260509092506 | 8 | 272 | 0.0 | 0.0 | 0.00 | 0.00 | 0.00 | 71 | 1014.3 |
| 20260509092005 | 8 | 272 | 0.0 | 0.0 | 0.00 | 0.00 | 0.00 | 69 | 1014.6 |
| 20260509091502 | 8 | 272 | 0.0 | 0.0 | 0.00 | 0.00 | 0.00 | 69 | 1014.3 |
| 20260509090958 | 9 | 272 | 0.0 | 0.0 | 0.00 | 0.00 | 0.00 | 67 | 1014.3 |
| 20260509090456 | 9 | 272 | 0.0 | 0.0 | 0.00 | 0.00 | 0.00 | 67 | 1014.5 |
| 20260509085953 | 9 | 272 | 0.0 | 0.0 | 0.00 | 0.00 | 0.00 | 66 | 1014.5 |
| 20260509085450 | 10 | 272 | 0.0 | 0.0 | 0.00 | 0.00 | 0.00 | 65 | 1014.5 |
| 20260509084946 | 10 | 272 | 0.0 | 0.0 | 0.00 | 0.00 | 0.00 | 66 | 1014.6 |
| 20260509084443 | 10 | 272 | 0.0 | 0.0 | 0.00 | 0.00 | 0.00 | 64 | 1014.6 |
| 20260509083941 | 10 | 272 | 3.2 | 3.2 | 0.00 | 0.00 | 0.00 | 65 | 1014.7 |
| 20260509083438 | 10 | 268 | 3.2 | 3.2 | 0.00 | 0.00 | 0.00 | 63 | 1014.4 |
| 20260509082934 | 11 | 265 | 1.6 | 3.2 | 0.00 | 0.00 | 0.00 | 60 | 1014.4 |
| 20260509082432 | 11 | 249 | 3.2 | 4.8 | 0.00 | 0.00 | 0.00 | 59 | 1014.3 |
| 20260509081929 | 11 | 247 | 3.2 | 4.8 | 0.00 | 0.00 | 0.00 | 58 | 1014.2 |
| 20260509081426 | 11 | 242 | 3.2 | 4.8 | 0.00 | 0.00 | 0.00 | 56 | 1014.4 |
| 20260509080923 | 11 | 247 | 4.8 | 4.8 | 0.00 | 0.00 | 0.00 | 57 | 1014.4 |
| 20260509080421 | 11 | 262 | 3.2 | 3.2 | 0.00 | 0.00 | 0.00 | 58 | 1014.4 |
| 20260509075919 | 11 | 242 | 1.6 | 3.2 | 0.00 | 0.00 | 0.00 | 59 | 1014.2 |
| 20260509075416 | 11 | 242 | 3.2 | 4.8 | 0.00 | 0.00 | 0.00 | 57 | 1014.3 |
| 20260509074913 | 11 | 243 | 3.2 | 3.2 | 0.00 | 0.00 | 0.00 | 56 | 1013.9 |
| 20260509074411 | 11 | 241 | 3.2 | 3.2 | 0.00 | 0.00 | 0.00 | 58 | 1014.5 |
| 20260509073907 | 11 | 242 | 3.2 | 4.8 | 0.00 | 0.00 | 0.00 | 57 | 1014.3 |
| 20260509073404 | 11 | 246 | 3.2 | 4.8 | 0.00 | 0.00 | 0.00 | 57 | 1014.4 |
| 20260509072900 | 11 | 248 | 3.2 | 4.8 | 0.00 | 0.00 | 0.00 | 57 | 1014.5 |
| 20260509072356 | 11 | 244 | 4.8 | 4.8 | 0.00 | 0.00 | 0.00 | 55 | 1014.5 |
| 20260509071853 | 11 | 247 | 4.8 | 4.8 | 0.00 | 0.00 | 0.00 | 55 | 1014.4 |
| 20260509071350 | 11 | 239 | 3.2 | 4.8 | 0.00 | 0.00 | 0.00 | 56 | 1014.6 |
| 20260509070848 | 11 | 241 | 3.2 | 4.8 | 0.00 | 0.00 | 0.00 | 56 | 1014.4 |
| 20260509070344 | 11 | 240 | 3.2 | 4.8 | 0.00 | 0.00 | 0.00 | 57 | 1014.3 |
| 20260509065840 | 11 | 252 | 3.2 | 6.4 | 0.00 | 0.00 | 0.00 | 56 | 1014.4 |
| 20260509065337 | 11 | 257 | 3.2 | 4.8 | 0.00 | 0.00 | 0.00 | 58 | 1014.4 |
| 20260509064833 | 10 | 249 | 3.2 | 3.2 | 0.00 | 0.00 | 0.00 | 58 | 1014.3 |
| 20260509064330 | 10 | 244 | 3.2 | 4.8 | 0.00 | 0.00 | 0.00 | 58 | 1014.4 |
| 20260509063828 | 10 | 242 | 3.2 | 3.2 | 0.00 | 0.00 | 0.00 | 59 | 1014.1 |
| 20260509063324 | 10 | 244 | 3.2 | 3.2 | 0.00 | 0.00 | 0.00 | 62 | 1014.4 |
| 20260509062821 | 10 | 246 | 3.2 | 3.2 | 0.00 | 0.00 | 0.00 | 63 | 1014.6 |
| 20260509062318 | 9 | 245 | 3.2 | 4.8 | 0.00 | 0.00 | 0.00 | 62 | 1014.7 |
| 20260509061815 | 9 | 252 | 3.2 | 3.2 | 0.00 | 0.00 | 0.00 | 62 | 1014.6 |
| 20260509061314 | 8 | 256 | 3.2 | 3.2 | 0.00 | 0.00 | 0.00 | 66 | 1014.5 |
| 20260509060810 | 8 | 257 | 3.2 | 3.2 | 0.00 | 0.00 | 0.00 | 67 | 1014.7 |
| 20260509060307 | 8 | 256 | 3.2 | 3.2 | 0.00 | 0.00 | 0.00 | 66 | 1014.9 |
| 20260509055802 | 9 | 256 | 3.2 | 3.2 | 0.00 | 0.00 | 0.00 | 65 | 1014.7 |
| 20260509055258 | 8 | 257 | 3.2 | 3.2 | 0.00 | 0.00 | 0.00 | 66 | 1014.8 |
| 20260509054755 | 9 | 256 | 3.2 | 3.2 | 0.00 | 0.00 | 0.00 | 67 | 1014.8 |
| 20260509054252 | 8 | 257 | 0.0 | 0.0 | 0.00 | 0.00 | 0.00 | 67 | 1014.8 |
| 20260509053751 | 9 | 257 | 0.0 | 0.0 | 0.00 | 0.00 | 0.00 | 68 | 1014.9 |
| 20260509053247 | 9 | 257 | 0.0 | 0.0 | 0.00 | 0.00 | 0.00 | 68 | 1015.1 |
| 20260509052745 | 9 | 257 | 0.0 | 0.0 | 0.00 | 0.00 | 0.00 | 68 | 1015.2 |
| 20260509052243 | 9 | 257 | 0.0 | 0.0 | 0.00 | 0.00 | 0.00 | 66 | 1015.4 |
| 20260509051740 | 10 | 257 | 0.0 | 0.0 | 0.00 | 0.00 | 0.00 | 69 | 1015.1 |
| 20260509051238 | 10 | 257 | 0.0 | 0.0 | 0.00 | 0.00 | 0.00 | 62 | 1014.9 |
| 20260509050734 | 10 | 257 | 0.0 | 0.0 | 0.00 | 0.00 | 0.00 | 62 | 1015.4 |
| 20260509050231 | 10 | 257 | 0.0 | 0.0 | 0.00 | 0.00 | 0.00 | 64 | 1015.3 |
| 20260509045728 | 10 | 257 | 0.0 | 0.0 | 0.00 | 0.00 | 0.00 | 61 | 1015.6 |